Theta_e
325 326 327 330 331 331 330 330 330 331 332 333 334 335 335 335 335 335 335 335 335 335 334 334 334 333 333 333 332 332 332 332 332 331 332 332 331 331 332 333 333 333 332 333 332 333 336 336 332 331 331 331 331 330 330 330 329 329 328 327 327 327 327
319 320 322 327 330 331 330 330 330 331 333 333 334 335 335 335 335 335 335 335 335 334 334 334 334 333 333 333 332 333 333 332 332 332 332 332 332 332 332 332 333 333 332 332 332 331 332 333 334 333 330 330 331 330 331 332 331 331 330 329 328 327 327
318 318 320 324 327 329 330 330 330 331 332 334 334 335 335 335 335 335 335 335 335 334 334 334 334 334 334 333 333 333 333 332 332 332 332 332 332 332 332 332 332 332 332 331 331 330 330 330 332 332 328 328 331 330 329 330 330 330 330 330 329 328 328
318 319 321 322 325 328 329 331 331 331 331 332 333 333 334 335 335 335 335 335 335 334 334 334 335 335 334 334 334 333 333 333 332 332 332 333 333 332 332 332 332 332 332 332 331 331 331 330 331 331 327 327 329 328 329 329 329 329 329 329 329 329 329
317 318 320 321 322 327 329 330 331 331 331 331 332 332 332 333 334 334 335 335 335 335 334 335 335 335 335 334 334 334 333 333 332 332 332 333 333 333 332 332 332 332 332 333 332 331 332 331 331 332 329 328 329 328 329 330 329 330 330 330 330 330 330
318 318 320 320 320 325 328 329 330 331 331 331 332 333 332 333 333 334 334 334 334 335 335 335 335 335 335 334 334 334 334 334 333 333 333 333 333 332 333 332 332 332 332 332 332 332 332 331 331 331 330 329 330 329 329 330 330 330 330 331 331 331 331
321 319 319 320 321 324 326 328 329 330 331 331 331 332 333 333 334 334 334 334 334 334 334 335 335 335 335 335 335 335 335 335 335 334 334 333 333 332 333 333 332 332 332 332 332 332 332 332 331 330 330 330 329 328 329 329 330 330 331 331 331 331 332
325 323 321 322 322 324 326 328 329 329 330 331 330 331 332 333 333 333 333 333 334 334 334 334 335 335 335 335 335 335 336 336 335 335 335 333 333 332 332 332 332 332 332 332 332 332 332 332 331 331 331 331 331 330 329 329 329 330 331 331 331 331 331
325 325 324 324 325 326 327 328 329 329 330 330 330 330 330 330 332 332 332 332 333 333 334 334 334 335 335 335 336 336 336 336 335 335 335 333 333 332 332 332 332 332 332 333 332 332 332 332 332 332 331 331 332 333 332 331 330 329 330 330 331 331 331
322 323 323 324 325 327 327 328 328 329 329 329 329 330 330 329 329 330 331 332 332 332 332 333 334 335 335 335 335 336 336 335 334 334 334 333 333 332 332 332 332 332 333 333 333 333 333 332 332 332 332 331 331 332 333 333 332 330 329 330 330 330 330
322 322 323 323 324 325 326 327 328 328 329 329 329 330 330 330 330 330 330 331 332 332 332 333 334 335 335 335 335 334 334 334 334 334 334 333 332 332 332 332 333 333 333 333 334 333 333 333 332 332 332 331 331 331 332 332 332 331 330 330 330 330 330
321 322 323 323 324 324 325 326 327 328 329 329 330 330 330 331 331 331 331 331 331 332 332 332 333 334 334 335 335 334 334 333 333 334 334 333 333 333 333 333 333 333 334 334 333 334 333 333 332 332 332 331 331 330 331 331 332 331 330 330 330 330 330
320 321 322 322 323 324 325 325 325 326 328 329 330 330 330 330 330 331 330 330 330 331 332 332 332 333 334 334 334 335 334 333 333 334 334 333 333 333 334 335 335 335 335 334 334 334 333 333 333 332 332 331 331 331 330 330 331 331 330 330 330 330 330
320 320 321 321 323 324 326 326 325 325 325 327 328 330 330 330 330 331 330 330 329 330 331 332 332 332 333 333 334 334 334 333 333 334 334 333 333 333 334 335 335 336 336 335 335 334 333 333 333 332 331 331 331 331 330 330 330 331 331 330 330 330 330
318 320 320 321 322 323 325 326 327 326 324 324 325 327 328 329 330 331 331 331 331 331 331 332 333 332 333 333 334 334 333 333 332 333 333 333 333 333 333 334 335 336 336 336 335 334 333 333 332 332 331 331 330 331 331 330 330 330 331 330 330 330 330
316 318 319 320 321 323 324 325 326 326 326 325 324 325 326 327 329 330 331 331 331 332 332 332 333 333 333 333 332 331 331 331 331 332 332 332 332 332 332 333 334 334 335 335 335 335 334 333 332 332 331 330 331 331 331 331 330 331 331 330 330 330 330
315 316 317 318 320 321 323 323 324 325 326 326 326 325 325 325 327 328 329 330 331 331 332 332 332 332 332 332 331 331 330 329 330 331 331 331 331 331 331 332 333 333 334 334 335 335 334 334 333 332 332 331 331 331 331 331 330 330 331 331 330 330 330
314 315 316 317 318 319 321 322 323 323 325 326 326 327 326 326 327 327 328 328 329 330 331 331 332 332 332 331 331 331 331 331 331 331 331 331 330 331 331 332 332 333 333 334 334 334 334 334 333 333 332 332 331 331 331 331 330 330 330 331 331 330 330
313 313 314 315 316 317 318 320 321 322 323 325 326 326 327 327 327 328 328 328 328 329 330 331 331 331 331 331 331 331 330 330 330 330 330 330 330 330 331 331 332 332 333 333 334 334 334 334 334 333 333 333 333 332 331 331 330 330 330 330 330 330 330
311 311 312 313 314 316 317 317 319 320 321 322 323 325 326 327 327 327 327 328 328 329 329 330 330 330 330 330 330 330 330 329 329 329 329 329 329 330 330 331 331 332 333 333 333 334 334 334 334 334 334 334 333 333 332 331 331 330 330 330 330 330 330
310 310 310 311 313 315 316 316 317 318 319 320 321 322 324 326 327 326 326 326 326 327 328 328 328 328 329 329 329 330 330 330 329 329 329 329 329 330 330 330 331 332 332 333 333 333 334 334 334 334 335 334 334 333 332 332 332 331 331 330 330 330 331
309 309 310 311 311 312 314 315 316 317 319 320 320 321 322 324 325 325 325 326 325 326 326 325 325 325 325 326 327 328 329 330 330 330 330 330 330 330 331 331 331 331 332 333 333 333 333 334 334 334 334 334 334 334 333 332 332 332 332 331 331 331 331
308 308 309 309 310 310 311 312 313 315 317 319 319 320 321 322 323 323 324 324 324 323 321 320 320 321 322 324 325 326 327 328 329 330 331 331 331 332 332 332 331 331 332 333 333 333 333 333 333 333 333 334 334 334 333 332 332 332 332 332 332 332 332
307 307 308 308 309 309 309 309 309 310 313 316 317 317 318 319 320 321 322 322 320 318 315 314 315 317 319 321 322 324 325 325 326 327 329 330 330 331 331 332 332 332 332 332 332 333 333 333 333 333 333 333 334 334 334 333 333 333 332 332 332 333 332
306 306 307 307 308 308 308 308 307 307 308 310 311 312 313 315 316 318 319 318 316 313 312 311 312 314 315 316 318 320 322 323 324 324 326 326 327 328 328 329 330 331 332 332 332 333 333 333 334 333 333 334 334 334 334 334 334 333 332 332 333 333 332
305 305 305 306 306 307 307 306 305 305 305 306 307 308 308 309 311 312 313 313 311 310 309 308 309 311 312 313 315 318 320 321 322 323 324 325 325 326 326 327 328 329 329 330 330 331 332 333 333 333 333 334 334 334 334 334 334 333 332 332 333 333 333
304 304 304 305 305 306 305 304 303 303 304 304 305 305 305 305 305 306 306 307 307 306 304 304 306 308 309 311 312 315 318 319 320 321 322 322 323 324 325 325 326 326 327 328 328 329 330 332 332 333 333 333 333 333 334 334 334 334 333 332 332 333 333
302 303 303 304 304 304 303 302 302 302 302 302 303 303 303 303 302 302 302 302 303 303 301 300 302 304 305 307 309 311 314 316 316 318 318 319 320 321 322 323 324 324 325 325 325 326 326 327 329 330 331 332 332 333 333 333 334 334 334 333 332 333 333
301 302 302 303 303 303 302 301 301 301 301 301 301 301 301 301 300 300 300 299 300 300 299 298 299 301 302 304 305 307 308 310 311 312 314 315 316 318 319 320 320 321 322 323 323 323 324 325 325 326 328 329 330 332 332 333 333 333 333 333 333 333 333
300 300 301 301 301 301 300 300 300 300 300 300 299 299 299 299 298 298 298 298 297 297 297 296 296 298 299 301 302 303 303 304 305 307 308 310 311 313 314 314 314 315 317 319 321 322 322 323 323 323 324 326 328 330 331 332 333 333 333 333 333 333 333
298 299 299 299 300 300 299 299 299 299 299 298 298 298 297 297 297 296 296 296 296 296 295 294 293 294 296 298 300 300 299 299 300 301 303 305 306 307 308 309 308 308 309 311 314 317 318 319 319 319 319 321 323 327 329 331 332 332 333 333 333 333 333
297 297 298 298 298 298 298 298 298 298 298 297 297 297 296 296 296 295 295 294 294 294 294 293 292 292 293 294 296 296 295 294 294 295 297 299 301 302 303 305 305 305 305 306 308 310 311 312 312 314 314 314 317 322 325 328 330 331 331 332 332 332 332
297 297 297 297 297 297 297 297 297 297 296 296 295 296 296 295 295 295 294 293 293 293 293 293 291 291 290 290 291 291 291 291 291 291 292 293 295 297 299 300 301 302 303 304 305 305 306 306 306 307 309 309 312 317 322 324 325 326 327 329 331 332 331
296 296 296 296 296 296 296 295 295 295 295 295 295 295 295 294 294 294 294 293 292 292 292 292 291 290 289 289 288 289 289 290 290 290 291 292 293 294 295 296 298 299 299 301 302 303 305 305 304 304 305 307 311 316 319 321 322 323 323 325 328 330 331
296 296 296 295 295 295 295 294 294 294 294 294 294 294 294 294 294 294 293 293 292 291 291 291 290 289 289 288 288 288 288 289 289 290 291 292 293 293 294 294 295 297 297 299 300 301 303 304 304 304 305 307 310 314 316 318 320 321 321 322 324 327 329
295 295 295 295 294 294 294 294 294 294 293 293 293 293 293 293 293 293 293 292 292 291 291 290 290 289 288 288 288 288 287 288 289 290 291 292 293 293 294 295 295 297 298 299 300 300 301 302 303 305 306 306 307 309 312 315 317 318 320 321 322 324 327
295 295 295 294 294 294 294 294 293 293 293 292 292 293 293 293 293 292 292 292 291 291 290 289 289 288 288 288 287 287 287 288 289 290 290 291 292 292 293 295 296 297 298 299 299 299 300 300 301 303 305 305 306 306 308 310 313 316 318 319 321 322 324
Wind_Speed
15 18 19 19 19 19 18 18 20 24 28 29 28 27 29 29 29 29 30 31 30 30 30 32 33 33 33 31 29 28 28 29 31 28 24 21 22 24 27 30 27 22 17 13 11 8 3 2 4 9 14 18 22 25 26 27 29 30 31 32 31 30 30
15 16 17 17 18 18 18 18 18 20 25 27 27 27 28 28 28 28 29 30 29 29 29 31 32 32 31 30 28 27 28 30 31 30 26 24 25 24 25 28 27 23 19 15 13 10 5 4 3 2 6 11 15 21 24 24 26 28 30 32 32 32 32
17 17 16 16 17 17 18 18 18 20 22 23 24 25 27 28 28 28 29 30 31 30 30 30 30 30 29 29 29 28 28 29 30 30 28 27 26 26 26 26 25 21 17 12 11 10 7 6 6 4 6 8 9 15 19 20 23 25 27 30 32 33 33
17 17 16 15 16 17 18 18 17 18 19 21 22 23 25 26 26 28 28 29 30 30 30 29 28 28 28 28 28 28 28 29 30 30 30 28 26 26 27 28 27 24 21 17 16 17 13 9 6 5 8 12 12 15 17 18 20 21 23 26 28 30 32
16 17 17 16 16 16 18 18 16 15 15 17 18 20 23 24 25 26 27 28 29 30 30 29 27 26 26 26 26 26 26 27 28 29 29 29 28 26 27 29 29 28 27 25 22 22 20 17 13 8 9 11 11 13 17 17 18 19 21 22 24 25 27
14 15 15 16 16 15 16 17 16 15 14 13 14 16 19 21 23 24 25 25 26 27 28 27 25 24 24 25 24 25 25 26 27 28 29 31 30 29 29 29 29 29 28 27 25 24 22 21 18 11 10 11 10 12 15 15 16 18 19 20 21 22 23
11 12 13 15 16 15 14 15 16 16 15 14 13 12 14 16 18 20 23 24 24 23 23 23 23 22 22 24 25 25 26 28 28 28 30 32 32 32 31 30 30 30 30 28 27 26 23 22 20 15 10 10 11 13 13 14 15 15 16 19 20 20 21
8 8 9 12 14 14 14 14 16 16 16 14 12 11 13 15 15 15 17 19 20 20 20 20 21 21 22 23 25 27 28 28 29 29 30 31 32 33 33 33 32 31 31 30 28 28 27 25 24 22 16 9 8 8 8 11 15 17 19 20 20 21 21
11 9 8 9 10 12 12 13 16 17 17 16 13 12 14 16 18 17 17 17 18 18 19 20 19 21 22 23 26 27 28 27 27 28 29 30 31 31 31 31 31 31 32 31 30 29 29 28 26 26 23 15 9 6 5 7 9 14 19 20 19 21 22
15 13 11 10 9 9 9 11 14 16 17 17 15 14 14 14 16 18 20 22 22 21 21 21 20 21 22 23 26 26 25 23 22 23 25 26 28 29 29 29 30 31 30 30 30 30 28 28 28 27 26 24 17 9 6 6 7 9 14 16 17 18 18
17 16 15 13 11 9 8 8 9 11 14 15 14 14 13 12 13 14 16 19 22 22 21 21 21 21 21 24 25 24 24 24 23 24 24 25 26 26 27 28 29 29 29 29 30 30 28 28 28 28 28 28 25 18 11 7 9 13 15 16 18 18 17
17 16 16 16 15 14 12 8 7 8 10 12 13 13 12 12 12 12 13 15 17 19 20 21 21 22 22 24 25 24 25 25 23 24 26 26 26 24 25 26 26 28 29 29 28 29 28 28 28 29 29 29 28 27 22 13 10 13 15 15 18 18 17
16 16 15 16 16 16 15 12 8 7 7 9 11 11 12 13 13 13 14 16 17 18 19 20 21 22 23 25 26 26 26 25 23 25 27 27 26 25 25 26 27 28 28 28 28 28 28 28 29 29 29 30 29 29 28 20 12 14 18 18 19 19 18
15 14 15 15 15 15 15 14 12 8 6 7 8 9 11 12 13 13 14 16 18 19 19 19 20 22 24 26 26 27 27 26 26 28 29 29 28 27 27 28 28 29 28 28 28 28 28 28 29 29 29 29 29 29 29 24 17 17 21 22 22 22 22
14 14 13 14 15 15 15 15 14 12 9 6 7 9 10 11 11 12 13 14 16 17 18 19 20 21 23 26 27 27 27 26 26 28 30 31 30 29 28 28 28 28 27 27 28 27 27 27 28 28 28 28 28 29 30 28 22 19 20 22 22 23 23
13 13 13 13 13 13 14 14 15 15 13 10 7 7 9 11 12 12 13 14 15 17 18 19 20 21 23 25 26 26 25 25 26 28 29 30 30 29 27 27 28 28 26 26 28 28 27 27 27 28 28 28 28 30 32 31 27 23 22 23 22 23 24
15 14 14 14 13 11 12 13 14 15 15 14 11 8 7 9 10 12 12 14 15 16 17 18 19 21 22 23 24 24 24 24 25 27 28 29 28 27 25 26 27 27 26 26 28 29 28 27 28 28 28 28 28 29 31 31 31 28 25 23 22 22 24
16 16 15 16 14 12 11 11 12 13 15 15 14 12 9 7 7 9 11 12 12 14 16 17 17 19 20 21 22 23 23 24 25 26 27 28 28 27 26 27 28 27 26 27 28 29 28 28 28 28 28 29 29 29 29 30 31 30 28 26 24 23 23
17 17 17 16 16 14 13 11 11 11 13 14 14 13 12 10 7 6 8 9 11 12 13 15 16 18 19 20 20 21 22 23 24 25 27 27 27 27 26 27 28 27 27 27 28 28 28 29 28 28 29 29 29 29 29 29 29 29 29 29 28 25 23
17 17 17 16 15 15 14 13 12 12 12 12 13 13 12 12 10 8 7 8 9 10 12 13 15 16 17 19 19 20 21 22 23 25 26 27 27 26 26 27 28 28 28 28 28 29 28 29 30 30 31 30 29 28 28 29 28 27 27 28 27 26 25
17 17 17 17 16 15 14 14 14 14 13 12 13 13 12 12 11 9 9 8 8 8 9 10 11 13 14 16 17 19 21 22 23 23 24 25 25 25 25 26 27 28 28 28 29 29 29 30 30 30 31 30 28 27 27 28 27 26 26 25 25 25 25
17 17 17 17 18 17 16 15 15 14 14 13 13 13 12 11 11 10 11 11 11 11 9 9 9 10 11 12 14 16 18 20 21 23 23 24 24 24 24 25 26 27 28 28 30 31 32 33 32 30 29 28 27 27 27 26 25 24 24 23 22 23 22
18 18 18 18 19 19 19 18 17 16 15 14 14 14 13 12 12 13 13 13 12 10 8 8 9 9 10 12 13 14 15 16 17 19 21 22 22 23 24 25 26 26 26 26 28 30 32 35 35 33 31 30 28 27 26 25 25 24 23 21 20 21 18
19 19 19 19 19 20 21 20 20 19 18 17 16 17 16 16 15 15 14 13 11 10 11 12 12 11 11 11 12 13 14 15 15 15 16 18 19 20 21 23 24 25 25 26 27 29 30 31 32 32 32 32 32 31 28 27 25 25 23 21 21 22 19
18 19 19 19 19 20 20 21 22 22 21 20 19 19 19 18 17 16 13 12 12 14 15 15 14 14 14 13 13 12 13 13 14 15 15 15 16 18 18 19 19 21 22 24 26 28 28 28 29 30 31 33 36 36 35 33 31 28 26 24 24 24 23
18 18 19 19 19 19 20 21 22 22 22 21 19 19 20 19 18 16 14 13 14 16 17 17 16 16 16 16 15 14 13 13 12 13 14 15 15 16 17 18 19 20 21 21 22 24 25 27 28 29 30 31 34 36 38 40 40 37 34 31 27 27 28
17 18 18 18 18 19 20 22 22 21 21 20 20 19 19 19 18 17 16 15 14 16 19 20 19 18 17 16 16 15 14 14 13 12 12 13 13 14 14 15 17 18 19 20 20 21 22 24 25 27 28 29 32 34 36 39 42 42 42 39 34 34 36
17 17 17 18 19 20 21 22 22 21 20 20 19 18 18 18 19 19 18 17 15 16 20 22 21 20 20 18 16 15 13 13 13 12 12 12 13 13 13 14 15 17 18 19 19 20 22 24 25 27 27 29 31 34 36 37 37 38 41 44 43 42 43
17 17 17 17 19 20 21 21 21 20 20 20 19 18 18 18 18 18 19 20 18 16 19 23 23 22 22 20 18 17 15 14 14 14 13 13 13 13 14 14 15 16 18 19 19 19 20 23 25 27 28 29 29 30 33 35 35 34 36 40 43 45 47
17 16 17 17 18 19 19 20 21 20 20 21 20 20 19 18 19 19 19 20 20 17 18 23 25 25 25 23 21 20 19 18 18 17 16 16 15 14 13 14 15 16 16 17 17 17 19 21 23 24 25 28 29 29 29 30 32 36 37 37 39 41 44
17 16 16 17 17 17 17 19 20 19 20 21 20 19 19 19 19 20 20 21 21 19 18 22 26 27 28 26 24 23 23 22 22 22 21 20 19 18 17 16 15 16 16 16 17 18 19 21 22 22 22 23 25 27 28 28 29 33 35 35 35 37 40
15 15 16 16 16 16 16 17 18 19 19 20 20 18 19 19 20 20 21 21 22 21 20 22 25 28 29 28 26 24 23 23 24 25 24 23 23 23 22 21 20 19 18 18 17 18 19 20 22 23 22 21 20 22 24 25 26 27 29 31 33 35 38
14 14 15 15 15 15 15 16 18 20 20 20 19 18 19 20 19 19 20 22 23 23 21 22 24 26 28 29 27 23 21 22 23 23 22 22 23 25 26 27 25 23 22 22 22 21 20 21 22 24 25 23 20 21 23 25 26 27 27 29 33 35 38
13 13 14 15 15 15 16 16 18 20 21 21 20 20 20 19 19 19 20 22 24 23 21 20 23 25 27 28 27 24 22 21 22 22 20 19 20 21 23 25 26 26 28 29 28 27 25 24 23 24 26 26 26 25 26 28 29 31 31 30 29 32 35
15 14 14 16 17 17 16 17 18 20 22 22 22 21 20 20 19 20 20 22 24 24 22 20 21 24 26 27 26 25 23 22 21 20 19 20 20 20 20 23 25 28 31 31 30 30 28 26 25 25 26 27 28 28 28 30 31 32 32 30 27 28 29
18 17 16 17 19 18 18 17 18 20 21 22 22 21 20 21 21 21 22 23 23 23 22 21 21 23 26 27 26 25 24 23 22 20 20 22 23 23 25 28 29 30 31 31 30 30 29 27 27 26 25 25 26 27 28 29 30 31 32 30 27 26 27
19 19 18 19 20 20 20 19 19 20 21 21 21 20 19 21 22 22 21 23 24 22 21 21 21 22 25 26 26 27 26 24 23 23 22 22 23 25 28 29 28 28 29 29 28 28 28 27 26 25 24 23 23 25 26 28 29 29 29 28 27 26 26
Wind_Direction
292 292 297 296 291 285 275 267 261 253 244 240 240 237 233 232 232 232 236 240 243 245 244 243 243 242 242 244 244 245 247 245 238 232 227 218 215 214 215 217 223 231 233 227 223 219 217 262 241 231 240 243 245 247 249 253 254 255 254 253 252 251 251
300 301 305 301 295 290 279 272 264 253 247 245 243 239 236 235 235 235 235 237 241 243 244 246 247 245 243 244 245 245 245 242 239 236 230 225 224 220 217 218 221 226 231 233 232 222 213 244 259 222 231 237 241 246 250 254 257 258 257 256 254 253 252
301 303 304 299 295 291 281 273 265 253 246 244 244 242 241 241 241 240 237 237 240 243 245 247 247 245 244 244 245 245 244 242 239 237 232 229 230 228 225 222 219 218 223 229 227 220 217 230 245 251 227 220 234 251 257 259 262 265 262 259 257 255 254
296 295 292 290 290 287 281 278 273 264 255 251 251 249 247 247 247 245 242 242 243 245 246 248 248 246 245 244 243 243 243 242 239 237 234 230 228 230 231 228 224 220 220 222 219 216 215 214 228 250 237 235 244 254 262 268 269 269 266 263 260 259 258
293 287 283 285 287 283 282 284 281 274 266 261 261 259 256 255 253 251 248 246 245 245 246 248 248 247 245 243 241 241 241 241 240 238 236 232 228 229 232 233 232 230 229 230 227 223 221 221 227 237 241 244 250 256 262 267 268 267 267 266 265 265 264
291 284 280 285 288 283 282 286 287 280 271 264 263 264 263 258 253 251 249 245 244 246 246 247 247 247 245 241 239 240 241 242 242 239 238 236 232 231 233 236 236 236 235 235 235 233 229 226 227 233 243 243 248 261 264 262 262 265 265 266 270 272 269
298 285 280 283 288 288 287 288 290 288 280 270 265 265 266 262 258 255 253 250 245 244 244 245 247 247 246 242 240 242 244 246 246 244 242 240 236 234 234 236 238 239 240 240 239 237 232 226 223 225 233 242 247 254 261 259 254 255 259 264 270 271 270
338 313 299 292 290 291 292 291 291 292 291 286 281 272 261 257 258 256 254 252 247 245 246 246 246 246 245 244 245 246 247 247 247 246 245 242 239 237 236 237 240 242 242 243 242 241 238 234 232 230 227 233 253 250 250 254 248 246 253 262 267 266 267
23 9 351 331 311 301 296 293 293 295 297 294 288 279 263 248 245 248 255 260 256 254 255 254 251 248 247 248 249 248 247 248 247 247 246 244 240 239 240 241 241 242 244 245 246 246 244 242 240 237 230 226 238 253 252 251 248 250 253 255 259 264 266
35 29 19 6 346 324 309 296 292 292 293 292 289 289 285 268 256 256 259 261 258 257 260 258 254 252 251 250 247 246 248 249 248 247 248 247 246 243 241 243 244 245 247 248 249 248 247 245 242 240 236 231 230 238 261 265 255 251 250 246 249 260 265
37 34 29 23 15 0 341 314 297 290 287 288 290 293 293 285 276 268 261 258 255 256 260 259 256 255 251 247 246 249 255 256 254 255 254 253 253 251 246 246 248 250 250 250 250 250 248 246 244 241 240 237 232 232 241 261 266 257 249 245 247 253 261
36 34 31 28 25 22 13 352 320 305 296 291 291 291 286 281 277 273 267 261 256 253 257 260 260 258 252 248 250 253 253 251 252 258 258 255 254 254 252 251 251 252 253 251 251 251 248 246 245 243 241 239 235 235 236 241 264 261 247 245 252 255 260
31 29 27 26 25 24 21 12 351 323 307 296 292 290 285 280 277 274 271 268 263 260 260 263 263 259 252 248 249 250 249 246 248 254 258 257 255 253 252 252 253 254 254 253 252 252 249 248 246 243 241 240 237 237 237 235 248 262 254 253 259 260 261
29 24 20 19 20 21 19 15 7 347 319 298 290 286 281 280 282 281 278 272 268 266 266 268 266 258 250 246 246 248 248 246 246 250 254 255 254 250 249 249 250 251 251 251 252 250 247 246 245 242 239 238 237 237 236 234 241 259 261 259 260 262 263
25 24 18 12 11 14 15 13 9 360 347 323 292 281 279 281 282 282 281 278 273 271 271 271 268 260 253 250 248 247 246 244 245 248 250 253 254 252 250 248 248 248 247 248 250 248 245 243 241 239 236 233 234 236 236 234 237 251 261 258 256 260 262
11 15 18 16 10 8 7 6 5 2 357 349 325 297 286 284 283 281 280 279 277 276 276 275 271 265 260 257 252 250 250 248 247 248 250 253 256 256 253 250 248 247 245 244 247 248 246 242 239 237 236 234 233 236 237 235 235 242 256 260 256 256 259
10 9 13 18 17 12 4 359 359 358 357 357 353 339 312 294 287 281 277 276 276 276 277 276 272 266 262 261 257 255 255 253 251 252 254 256 258 259 257 253 251 249 245 242 244 246 245 243 240 237 237 237 235 236 237 236 236 238 248 259 259 256 258
17 16 15 16 20 21 14 3 356 355 354 356 358 358 351 334 303 284 283 283 280 277 275 274 274 271 269 267 264 262 261 260 259 260 261 261 261 262 261 259 257 253 246 241 241 242 242 242 241 238 237 237 237 238 238 237 237 237 242 252 258 258 259
14 16 17 18 19 22 21 14 3 357 354 352 353 357 359 2 353 322 307 304 296 288 281 276 277 280 279 278 276 274 270 267 266 265 265 264 264 264 263 262 260 255 249 243 241 241 241 241 241 239 237 236 235 237 237 237 238 237 238 246 253 256 257
10 12 15 19 21 22 22 19 11 3 356 350 348 351 356 2 9 8 354 339 323 310 301 293 288 287 286 286 285 283 279 274 271 270 268 266 265 265 264 263 261 258 252 246 244 243 242 240 240 240 239 237 234 233 234 236 237 236 236 241 247 251 253
11 12 14 19 24 26 25 21 15 8 1 355 352 354 358 4 12 20 24 22 12 356 346 336 323 312 304 298 293 288 283 276 271 269 270 270 268 266 265 264 263 261 257 253 251 249 245 241 240 240 240 239 236 233 232 233 234 234 235 237 241 245 249
15 16 18 23 26 28 30 27 21 14 8 5 4 4 6 12 20 29 34 38 38 31 22 7 344 325 315 307 298 292 287 280 273 268 267 268 267 265 265 266 266 265 262 258 254 253 251 246 241 240 241 241 238 236 234 234 234 234 234 236 239 240 242
19 20 23 27 29 31 33 33 30 25 21 21 23 24 24 25 29 37 45 52 55 51 38 16 354 337 327 317 305 296 293 290 284 278 272 268 264 261 260 261 264 266 265 259 255 257 257 253 248 245 246 245 242 239 237 236 236 234 233 234 237 237 235
22 24 27 30 33 34 34 34 34 31 30 33 36 40 40 39 40 46 55 64 65 54 36 21 7 357 349 336 318 306 300 295 291 288 284 280 275 271 267 263 262 263 261 257 255 258 260 259 256 254 252 251 249 246 242 240 237 235 234 234 237 237 232
23 26 30 33 34 35 34 34 32 31 32 34 38 44 46 45 49 56 60 58 50 38 27 17 8 3 1 357 345 333 320 308 301 295 292 290 291 292 293 291 285 279 272 265 260 258 260 262 263 261 257 255 253 251 249 247 243 239 237 238 238 237 234
24 26 30 33 35 35 34 33 32 31 31 32 36 42 46 47 50 54 53 43 33 28 22 13 6 4 3 3 1 357 349 338 326 313 303 299 299 298 301 304 303 298 294 288 281 276 272 270 268 264 261 258 257 255 253 251 249 246 245 242 240 241 241
24 25 29 33 34 35 34 33 32 33 31 30 32 37 40 43 43 42 42 38 28 21 18 12 6 4 4 3 3 1 355 349 346 340 328 319 314 309 306 306 305 302 301 300 297 293 287 281 277 272 267 263 263 261 258 254 252 250 248 245 243 246 248
23 24 27 30 32 33 33 31 31 32 34 35 35 37 37 38 37 34 33 35 32 21 13 9 7 6 5 4 3 0 354 349 348 347 340 333 326 318 313 311 309 305 304 304 304 302 299 295 290 285 278 271 266 262 258 255 254 254 253 250 247 248 250
22 23 25 27 30 31 30 30 29 30 34 36 38 40 40 38 36 33 29 29 31 26 12 8 9 9 6 4 3 1 358 354 350 344 338 335 329 322 318 315 313 309 305 306 309 310 307 302 298 294 288 281 275 267 258 254 256 260 261 259 255 253 253
23 24 25 27 29 30 29 30 29 30 32 34 36 38 40 40 38 35 31 26 26 24 15 10 13 14 11 9 8 6 4 359 352 345 338 334 330 325 321 320 320 316 310 308 309 309 306 303 303 303 297 290 285 279 271 266 263 262 262 261 261 261 261
25 27 29 30 30 30 29 29 30 31 33 34 35 36 38 40 38 35 32 27 23 23 18 11 13 15 15 16 15 12 8 3 357 350 343 338 335 331 326 325 326 324 318 311 305 302 301 303 307 310 308 302 294 287 282 278 271 263 257 256 259 262 263
26 29 32 33 32 30 29 29 29 32 35 34 34 34 34 35 34 32 29 24 22 24 18 12 12 12 14 18 18 13 9 5 358 352 347 343 340 338 335 333 331 328 322 314 306 301 300 303 306 306 307 307 301 292 289 284 275 268 259 254 255 260 263
32 33 33 33 33 31 28 26 27 30 32 32 32 31 31 30 27 26 24 19 20 21 16 11 11 10 11 16 17 13 9 5 356 350 347 344 341 340 340 339 336 333 329 322 315 308 302 301 303 301 298 296 291 289 292 288 283 284 279 266 257 256 259
39 40 39 34 33 32 29 27 27 28 28 28 29 29 28 25 22 20 18 15 17 19 15 10 9 8 9 13 15 12 8 3 356 348 343 342 340 338 338 338 336 334 334 330 325 318 310 303 301 296 290 286 282 283 287 286 285 288 290 284 273 260 253
43 44 44 38 34 33 32 28 25 25 26 25 26 27 25 21 18 16 14 13 14 14 12 10 8 7 7 9 11 10 6 2 359 352 342 338 338 335 334 334 333 334 335 334 330 325 319 312 305 296 287 282 278 277 279 280 281 283 285 286 285 275 261
48 48 46 42 38 36 35 32 28 25 25 23 23 24 22 18 15 12 10 10 10 10 9 9 7 5 5 6 6 6 4 3 3 356 342 335 336 336 334 334 334 336 338 338 334 330 326 321 314 305 296 287 280 275 274 275 276 277 278 279 279 277 270
52 50 48 44 41 38 36 35 32 28 26 25 24 23 20 16 13 11 6 5 6 6 7 7 6 4 3 3 2 2 2 3 2 355 345 338 335 333 332 333 335 338 340 339 338 336 334 332 328 320 312 302 289 278 273 270 270 271 271 271 269 268 268